Time,TemperatureF,DewpointF,PressureIn,WindDirection,WindDirectionDegrees,WindSpeedMPH,WindSpeedGustMPH,Humidity,HourlyPrecipIn,Conditions,Clouds,dailyrainin,SoftwareType,DateUTC
2013-05-09 00:01:00,58.0,24.0,29.73,WNW,293,4.0,4.0,27,0.00,,,0.00,,2013-05-09 07:01:00,
2013-05-09 00:12:00,58.0,25.0,29.73,WSW,248,0.0,0.0,28,0.00,,,0.00,,2013-05-09 07:12:00,
2013-05-09 00:31:00,57.0,26.0,29.73,WSW,248,0.0,0.0,30,0.00,,,0.00,,2013-05-09 07:31:00,
2013-05-09 00:52:00,56.0,27.0,29.73,NW,315,0.0,1.0,32,0.00,,,0.00,,2013-05-09 07:52:00,
2013-05-09 01:02:00,55.0,27.0,29.73,SSE,158,0.0,0.0,34,0.00,,,0.00,,2013-05-09 08:02:00,
2013-05-09 01:11:00,55.0,27.0,29.73,SSE,158,0.0,0.0,34,0.00,,,0.00,,2013-05-09 08:11:00,
2013-05-09 01:21:00,55.0,28.0,29.73,SSE,158,0.0,0.0,35,0.00,,,0.00,,2013-05-09 08:21:00,
2013-05-09 01:31:00,55.0,29.0,29.73,SSE,158,0.0,0.0,36,0.00,,,0.00,,2013-05-09 08:31:00,
2013-05-09 01:41:00,55.0,29.0,29.73,SSE,158,0.0,0.0,36,0.00,,,0.00,,2013-05-09 08:41:00,
2013-05-09 01:52:00,55.0,29.0,29.73,SSE,158,0.0,0.0,36,0.00,,,0.00,,2013-05-09 08:52:00,
2013-05-09 02:01:00,54.0,28.0,29.73,SSE,158,0.0,0.0,36,0.00,,,0.00,,2013-05-09 09:01:00,
2013-05-09 02:11:00,54.0,28.0,29.73,SSE,158,0.0,0.0,36,0.00,,,0.00,,2013-05-09 09:11:00,
2013-05-09 02:21:00,54.0,28.0,29.73,NE,45,1.0,0.0,37,0.00,,,0.00,,2013-05-09 09:21:00,
2013-05-09 02:32:00,53.0,27.0,29.73,NE,45,1.0,0.0,37,0.00,,,0.00,,2013-05-09 09:32:00,
2013-05-09 02:42:00,53.0,28.0,29.73,NE,45,1.0,0.0,38,0.00,,,0.00,,2013-05-09 09:42:00,
2013-05-09 02:53:00,53.0,28.0,29.73,NE,45,1.0,0.0,38,0.00,,,0.00,,2013-05-09 09:53:00,
2013-05-09 03:02:00,52.0,27.0,29.73,NE,45,1.0,0.0,38,0.00,,,0.00,,2013-05-09 10:02:00,
2013-05-09 03:12:00,52.0,28.0,29.69,NE,45,1.0,0.0,39,0.00,,,0.00,,2013-05-09 10:12:00,
2013-05-09 03:22:00,52.0,28.0,29.69,NE,45,1.0,0.0,39,0.00,,,0.00,,2013-05-09 10:22:00,
2013-05-09 03:32:00,52.0,28.0,29.69,NE,45,1.0,0.0,39,0.00,,,0.00,,2013-05-09 10:32:00,
2013-05-09 03:41:00,52.0,28.0,29.69,NE,45,1.0,0.0,39,0.00,,,0.00,,2013-05-09 10:41:00,
2013-05-09 03:52:00,52.0,28.0,29.73,NE,45,1.0,0.0,39,0.00,,,0.00,,2013-05-09 10:52:00,
2013-05-09 04:02:00,51.0,28.0,29.73,NE,45,1.0,0.0,40,0.00,,,0.00,,2013-05-09 11:02:00,
2013-05-09 04:11:00,51.0,28.0,29.73,NE,45,1.0,0.0,40,0.00,,,0.00,,2013-05-09 11:11:00,
2013-05-09 04:22:00,51.0,28.0,29.73,NE,45,1.0,0.0,40,0.00,,,0.00,,2013-05-09 11:22:00,
2013-05-09 04:32:00,51.0,28.0,29.69,ENE,68,1.0,2.0,40,0.00,,,0.00,,2013-05-09 11:32:00,
2013-05-09 04:41:00,51.0,28.0,29.69,ENE,68,1.0,2.0,40,0.00,,,0.00,,2013-05-09 11:41:00,
2013-05-09 05:01:00,50.0,27.0,29.73,ENE,68,1.0,2.0,40,0.00,,,0.00,,2013-05-09 12:01:00,
2013-05-09 05:11:00,50.0,27.0,29.73,ENE,68,1.0,2.0,40,0.00,,,0.00,,2013-05-09 12:11:00,
2013-05-09 05:21:00,50.0,27.0,29.73,ENE,68,1.0,2.0,40,0.00,,,0.00,,2013-05-09 12:21:00,
2013-05-09 05:31:00,50.0,27.0,29.73,NE,45,3.0,4.0,40,0.00,,,0.00,,2013-05-09 12:31:00,
2013-05-09 05:42:00,50.0,27.0,29.73,ENE,68,2.0,3.0,40,0.00,,,0.00,,2013-05-09 12:42:00,
2013-05-09 05:52:00,50.0,27.0,29.73,ENE,68,2.0,3.0,40,0.00,,,0.00,,2013-05-09 12:52:00,
2013-05-09 06:01:00,50.0,27.0,29.73,ENE,68,2.0,3.0,41,0.00,,,0.00,,2013-05-09 13:01:00,
2013-05-09 06:11:00,50.0,27.0,29.73,ENE,68,2.0,3.0,41,0.00,,,0.00,,2013-05-09 13:11:00,
2013-05-09 06:21:00,49.0,26.0,29.76,ENE,68,2.0,3.0,40,0.00,,,0.00,,2013-05-09 13:21:00,
2013-05-09 06:31:00,50.0,27.0,29.76,ENE,68,2.0,3.0,41,0.00,,,0.00,,2013-05-09 13:31:00,
2013-05-09 06:42:00,50.0,27.0,29.76,ENE,68,2.0,3.0,40,0.00,,,0.00,,2013-05-09 13:42:00,
2013-05-09 06:52:00,50.0,27.0,29.76,ENE,68,2.0,3.0,40,0.00,,,0.00,,2013-05-09 13:52:00,
2013-05-09 07:01:00,51.0,28.0,29.76,ENE,68,2.0,3.0,40,0.00,,,0.00,,2013-05-09 14:01:00,
2013-05-09 07:11:00,51.0,28.0,29.76,ENE,68,2.0,3.0,40,0.00,,,0.00,,2013-05-09 14:11:00,
2013-05-09 07:32:00,54.0,29.0,29.73,ENE,68,2.0,3.0,38,0.00,,,0.00,,2013-05-09 14:32:00,
2013-05-09 07:41:00,54.0,29.0,29.73,ENE,68,2.0,3.0,38,0.00,,,0.00,,2013-05-09 14:41:00,
2013-05-09 07:52:00,56.0,30.0,29.73,ENE,68,2.0,3.0,37,0.00,,,0.00,,2013-05-09 14:52:00,
2013-05-09 08:01:00,59.0,31.0,29.69,East,90,4.0,4.0,34,0.00,,,0.00,,2013-05-09 15:01:00,
2013-05-09 08:32:00,65.0,31.0,29.69,SSE,158,2.0,3.0,28,0.00,,,0.00,,2013-05-09 15:32:00,
2013-05-09 08:42:00,68.0,31.0,29.76,South,180,3.0,4.0,25,0.00,,,0.00,,2013-05-09 15:42:00,
2013-05-09 09:03:00,71.0,31.0,29.73,SSE,158,1.0,1.0,23,0.00,,,0.00,,2013-05-09 16:03:00,
2013-05-09 09:32:00,73.0,31.0,29.73,West,270,3.0,5.0,21,0.00,,,0.00,,2013-05-09 16:32:00,
2013-05-09 09:41:00,75.0,31.0,29.69,South,180,4.0,6.0,20,0.00,,,0.00,,2013-05-09 16:41:00,
2013-05-09 10:02:00,77.0,30.0,29.73,South,180,3.0,6.0,18,0.00,,,0.00,,2013-05-09 17:02:00,
2013-05-09 10:32:00,80.0,28.0,29.73,South,180,3.0,6.0,15,0.00,,,0.00,,2013-05-09 17:32:00,
2013-05-09 11:01:00,80.0,28.0,29.73,SSW,203,6.0,17.0,15,0.00,,,0.00,,2013-05-09 18:01:00,
2013-05-09 11:31:00,80.0,28.0,29.73,West,270,4.0,8.0,15,0.00,,,0.00,,2013-05-09 18:31:00,
2013-05-09 11:52:00,80.0,28.0,29.73,WSW,248,6.0,6.0,15,0.00,,,0.00,,2013-05-09 18:52:00,
2013-05-09 12:01:00,80.0,23.0,29.73,SW,225,3.0,11.0,12,0.00,,,0.00,,2013-05-09 19:01:00,
2013-05-09 12:31:00,82.0,24.0,29.73,SSE,158,4.0,5.0,12,0.00,,,0.00,,2013-05-09 19:31:00,
2013-05-09 12:41:00,81.0,24.0,29.73,WSW,248,9.0,10.0,12,0.00,,,0.00,,2013-05-09 19:41:00,
2013-05-09 13:01:00,81.0,24.0,29.73,WSW,248,10.0,10.0,12,0.00,,,0.00,,2013-05-09 20:01:00,
2013-05-09 13:32:00,82.0,24.0,29.73,ESE,113,4.0,6.0,12,0.00,,,0.00,,2013-05-09 20:32:00,